Regional Weather Roundup
Issued by NWS Pendleton, OR

Home | Current Version | Previous Version | Text Only | Print | Product List | Glossary On
Versions: 1 2 3 4 5 6 7 8 9 10 11 12 13 14 15 16 17 18 19 20 21 22 23 24 25 26 27 28 29 30 31 32 33 34 35 36 37 38 39 40 41 42 43 44 45 46 47 48 49 50
000
ASUS46 KPDT 241025
RWRPDT
PENDLETON REGIONAL WEATHER ROUNDUP
NATIONAL WEATHER SERVICE PENDLETON OREGON
300 AM PDT FRI MAR 24 2017

NOTE: FAIR INDICATES FEW OR NO CLOUDS BELOW 12,000 FEET WITH NO
SIGNIFICANT WEATHER AND/OR OBSTRUCTIONS TO VISIBILITY.

# INDICATES UNOFFICIAL STATION AND DATA

WAZ520-241110-
EAST SLOPES OF WASHINGTON CASCADES

CITY            SKY/WX      TMP DP  RH  WIND    PRES   REMARKS
#CLE ELUM HS    N/A         38  35  89  CALM    29.85F
#CLE ELUM LAKE  N/A         33  32  96  CALM    29.89F
#GLENWOOD       N/A         37  36  96  NE1     29.90F
#NELSON 3SW     N/A         32  31  96  CALM    30.13F
#NILE           N/A         36  35  96  CALM    29.18F
#TEANAWAY 4NE   N/A         37  36  96  CALM    N/A
#TROUT LAKE 1NE N/A         34  33  96  W1      29.92F
#TROUT LAKE 1E  N/A         33  32  96  CALM    29.90F
$$

WAZ521-241110-
SIMCOE HIGHLANDS

CITY            SKY/WX      TMP DP  RH  WIND    PRES   REMARKS
#BICKLETON HS   N/A         39  39  100 SW3     29.91F
#CENTERVILLE 1SWN/A         41  37  86  CALM    29.85F
#GOLDENDALE 1NE N/A         43  37  79  CALM    N/A
#GOLDENDALE 4W  N/A         42  37  82  CALM    29.90F
#GOODNOE HILLS  N/A         45  39  79  S3      29.79F
#LYLE 6NE       N/A         41  40  96  N2      29.86F
#PITT 4SE       N/A         38  37  96  NE1     29.92F
$$

WAZ026-241110-
KITTITAS VALLEY

CITY            SKY/WX      TMP DP  RH  WIND    PRES   REMARKS
ELLENSBURG AP   LGT RAIN    42  36  79  NE8     29.89F
#ELLENSBURG CWU N/A         41  37  86  N5      29.86F
#ELLENSBURG 3NE N/A         39  36  89  N7      27.99F
#ELLENSBURG 1E  N/A         40  N/A N/A CALM    N/A
#ELLENSBURG 13S N/A         43  37  79  CALM    N/A
#KITTITAS 4N    N/A         39  33  79  E2      29.91F
#KITTITAS 3S    N/A         40  37  89  CALM    29.91F
#THORP 6N       N/A         37  35  92  E5      29.93F
$$

WAZ027-241110-
YAKIMA VALLEY

CITY            SKY/WX      TMP DP  RH  WIND    PRES   REMARKS
SUNNYSIDE AP    LGT DRIZZLE 44  40  86  CALM    29.91F
YAKIMA AIRPORT  CLOUDY      46  40  79  W7      29.91F
YAKIMA-VAGABOND LGT RAIN SH 42  39  89  CALM    29.88F
#DONALD 2NE     N/A         45  27  49  S2      28.75F
#GRANDVIEW      N/A         46  37  71  NW1     29.94F
#MABTON         N/A         46  41  83  CALM    29.91F
#MOXEE 2E       N/A         43   0  16  CALM    29.87F
#NACHES 2SW     N/A         41  39  93  CALM    29.93S
#TERRACE HTS    N/A         43  38  82  CALM    29.88F
#TOPPENISH      N/A         45  41  86  CALM    29.83F
#WEST VALLEY    N/A         44  40  86  CALM    29.91F
#W YAKIMA       N/A         43  39  86  CALM    29.92F
#WHITE SWAN 5E  N/A         44  42  93  CALM    29.92F
#WILEY CITY 3W  N/A         41  36  82  CALM    29.87F
$$

WAZ028-241110-
LOWER COLUMBIA BASIN...WASHINGTON

CITY            SKY/WX      TMP DP  RH  WIND    PRES   REMARKS
PASCO           LGT RAIN    45  39  79  SE5     29.92F
PROSSER AWOS    N/A         45  41  86  CALM    29.94F
RICHLAND AWOS   LGT RAIN    47  41  79  SE3     29.92F
#BENTON CITY    N/A         45  40  82  CALM    29.83F
#CONNELL 5N     N/A         43  37  79  CALM    29.92S
#CONNELL 5NW    N/A         43  37  79  CALM    29.87F
#ELTOPIA 6NW    N/A         43  38  82  CALM    28.88F
#KAHLOTUS       N/A         44  36  73  CALM    29.91F
#KENNEWICK 3S   N/A         44  38  79  CALM    29.93S
#PATERSON       N/A         46  41  83  CALM    29.90S
#SAGEMOOR 2W    N/A         44  37  76  CALM    29.79F
#TOUCHET 2S     N/A         48  39  71  CALM    29.91S
#WEST PASCO     N/A         46  37  71  CALM    29.90F
$$

WAZ029-241110-
FOOTHILLS OF THE BLUES...WASHINGTON

CITY            SKY/WX      TMP DP  RH  WIND    PRES   REMARKS
WALLA WALLA AP  CLOUDY      47  37  68  W9      29.91R
#CLYDE 6NW      N/A         43  35  73  CALM    29.91S
#DAYTON SCHOOL  N/A         49  29  46  S5      29.94R
#LOWDEN 2SE     N/A         46  39  76  NW3     29.88R
#PLEASANT VIEW 1N/A         44  34  68  CALM    29.96R
#PRESCOTT       N/A         45  38  76  CALM    29.91R
#WHITMAN COLLEGEN/A         47  36  65  E2      29.97R
#WAITSBURG 5S   N/A         45  37  73  S3      30.03R
#WAITSBURG 8N   N/A         45  N/A N/A S8      29.85R
#WALLA WALLA 5E N/A         47  36  65  CALM    N/A
#WHITMAN MISSIONN/A         46  39  76  CALM    29.93S
$$

WAZ030-241110-
BLUE MOUNTAINS...WASHINGTON

CITY            SKY/WX      TMP DP  RH  WIND    PRES   REMARKS
#DIXIE 5SE      N/A         38  28  67  S12     29.84R WCI 30
$$

ORZ009-041-WAZ024-241110-
COLUMBIA RIVER GORGE

CITY            SKY/WX      TMP DP  RH  WIND    PRES   REMARKS
HOOD RIVER AP   RAIN        43  41  93  N3      29.91F
THE DALLES AP   LGT RAIN    47  45  93  CALM    29.91F
#ARLINGTON AIRPON/A         45  41  86  CALM    29.92F
#ARLINGTON HS   N/A         46  41  83  SE7     29.82F
#CELILO DOT     N/A         46  42  86  S12     N/A    WCI 40
#LYLE           N/A         46  45  96  N5      29.92F
#MOSIER 1S      N/A         44  37  76  CALM    29.88F
#MURDOCK        N/A         46  44  93  NW2     29.87F
#RUFUS DOT      N/A         47  44  89  W1      N/A
#SMITHVILLE     N/A         46  44  93  N2      29.85F

$$

ORZ510-241110-
NORTH CENTRAL OREGON

CITY            SKY/WX      TMP DP  RH  WIND    PRES   REMARKS
#ANTELOPE       N/A         42  38  86  CALM    29.78F
#CHENOWITH 1W   N/A         42  40  93  E5      N/A
#COW CYN RST AREN/A         42  41  96  SE3     N/A
#DUFUR          N/A         42  40  93  CALM    29.86F
#DUFUR 9E       N/A         40  38  92  CALM    29.94F
#GRASS VALLEY 1SN/A         42  40  93  CALM    30.01F
#KENT DOT       N/A         42  36  79  N8      N/A
#MAUPIN SCHOOL  N/A         45  41  86  CALM    29.92F
#MORO SCHOOL    N/A         42  41  96  CALM    29.96F
#SHANIKO 4NW    N/A         39  37  92  S21     29.84F WCI 29
#TYGH VALLEY 2NEN/A         44  42  93  CALM    29.88F
#WAPANITIA AIRPON/A         42  40  93  CALM    29.91F
#WASCO 5NE      N/A         42  39  89  CALM    29.90F
$$

ORZ511-241110-
CENTRAL OREGON

CITY            SKY/WX      TMP DP  RH  WIND    PRES   REMARKS
BEND AIRPORT    CLOUDY      43  34  70  CALM    29.87F
MADRAS AIRPORT  LGT DRIZZLE 45  39  79  S15     29.88F WCI 38
PRINEVILLE AP   CLOUDY      45  36  70  SE10    29.87F
REDMOND AIRPORT CLOUDY      45  32  60  SE9     29.87F
#ASHWOOD SCHOOL N/A         44  39  82  SE9     29.83F
#BEND 1SW       N/A         39  36  89  SW3     N/A
#BEND-AWBREY    N/A         40  37  89  SW9     29.87F
#BEND-KIM LN    N/A         44  36  73  SE2     29.81F
#CULVER         N/A         45  36  70  SE8     29.80F
#CULVER 8W      N/A         43  40  89  CALM    29.88F
#LAKE BILLY CHINN/A         40  N/A N/A CALM    29.97F
#POWELL BUTTE   N/A         45  33  63  S12     29.83F WCI 39
#PRINEVILLE     N/A         44  37  76  SE7     29.98F
#PRINEVILLE 3N  N/A         44  38  79  E10     29.88F
#WARM SPRINGS   N/A         45  43  93  CALM    29.83F

$$


ORZ509-241110-
EAST SLOPES OF OREGON CASCADES

CITY            SKY/WX      TMP DP  RH  WIND    PRES   REMARKS
SISTERS AWOS    N/A         39  37  92  CALM    29.83F
#BLUE BOX PASS  N/A         34  N/A N/A SE3     N/A
#CAMP SHERMAN   N/A         39  37  92  CALM    29.89F
#LA PINE 4SW    N/A         38  33  82  S6      29.91F
#LA PINE 4NW    N/A         37  32  82  CALM    29.96F
#LAVA BUTTE DOT N/A         36  34  92  S3      N/A
#SISTERS 3N     N/A         40  35  82  CALM    29.88F
#SUNRIVER       N/A         38  36  92  SW2     29.92F
#TUMALO 3W      N/A         40  35  82  S9      29.76F
#WANOGA BUTTE D N/A         30  30  100 W10     N/A

$$

ORZ044-241110-
LOWER COLUMBIA BASIN...OREGON

CITY            SKY/WX      TMP DP  RH  WIND    PRES   REMARKS
HERMISTON       LGT RAIN    46  43  89  S7      29.91S
#BOARDMAN SCHOOLN/A         47  42  83  CALM    29.91F
#BOARDMAN 8SW   N/A         47  42  83  CALM    29.90F
#ECHO 8SW       N/A         47  39  74  CALM    29.92F
#I-84 EX 198 DOTN/A         46  37  71  N7      N/A
#IONE SCHOOL    N/A         45  27  49  CALM    29.92F
#UMATILLA       N/A         47  39  74  S5      29.85S
$$

ORZ507-241110-
NORTHERN FOOTHILLS OF THE BLUES

CITY            SKY/WX      TMP DP  RH  WIND    PRES   REMARKS
PENDLETON AIRPT LGT RAIN    44  39  82  N7      29.91S
#ADAMS 3WNW     N/A         46  38  73  CALM    29.93S
#ATHENA         N/A         45  38  76  CALM    29.95F
#CAYUSE         N/A         48  36  63  NE1     29.91F
#HELIX SCHOOL   N/A         46  38  73  N9      29.91F
#HELIX 3N       N/A         44  38  79  SW13    29.88F WCI 38
#HOLDMAN 5SE    N/A         44  39  82  CALM    29.90F
#HOLDMAN 6E     N/A         44  39  82  SE3     29.74S
#M-F FERNDALE   N/A         46  36  68  CALM    29.89R
#M-F GROVE ELEM N/A         50  35  56  SW6     29.88R
#M-FREEWATER 5SEN/A         53  37  54  CALM    29.90R
#PENDLETON DNTN N/A         47  34  60  CALM    29.89S
#PDT AQUATIC CTRN/A         46  36  68  N2      29.81S
#PDT SUNRIDGE   N/A         46  39  76  NW2     29.92F
#PILOT ROCK 1S  N/A         48  33  56  N2      29.91S
#PILOT ROCK     N/A         47  38  71  NE3     29.92F
#TUTUILLA       N/A         49  39  68  E2      29.93S
#UMAPINE 2E     N/A         47  39  74  NW3     29.88S
#WESTON SCHOOL  N/A         47  33  58  W2      29.92R

$$

ORZ508-241110-
SOUTHERN FOOTHILLS OF THE BLUES

CITY            SKY/WX      TMP DP  RH  WIND    PRES   REMARKS
LEXINGTON       LGT MXD PCP 45  43  93  SE6     29.92F
#AJAX           N/A         42  34  73  CALM    30.03F
#CONDON SCHOOL  N/A         43  40  89  S7      29.84F
#CONDON 5W      N/A         40  36  85  SE13    29.83F WCI 32
#FOSSIL SCHOOL  N/A         45  40  82  SE2     29.83F
#HEPPNER EOC    N/A         47  40  76  SE7     29.84F
#HEPPNER 4NE    N/A         44  39  82  S1      29.91F
#LEXINGTON 2SE  N/A         46  41  83  CALM    29.87F
#OLEX 4N        N/A         45  40  82  CALM    29.88F
#RUGGS 5NE      N/A         43  39  86  NE7     30.04S
#RUGGS 2SW      N/A         44  39  82  S8      29.93F

$$

ORZ502-503-241110-
BLUE MOUNTAINS

CITY            SKY/WX      TMP DP  RH  WIND    PRES   REMARKS
MEACHAM         CLOUDY      42  25  51  CALM    29.91F
#BATTLE MTN DOT N/A         39  28  64  S12     N/A    WCI 32
#GREENHORN 9SW  N/A         32  N/A N/A CALM    26.17S
#HARDMAN 10S    N/A         36  35  96  S8      30.06F
#HEPPNER 15SE   N/A         37  34  89  SE5     29.92S
#LADD CYN SMT   N/A         42  26  53  E3      N/A
#LADD CREEK ODOTN/A         44  28  53  SW8     N/A
#LONG CREEK HS  N/A         43  36  76  CALM    N/A
#N POWDER DOT   N/A         42  27  55  SE17    N/A    WCI 34
#PIKES PEAK     N/A         47  28  47  W17G29  27.99S WCI 40
#TOLLGATE       N/A         37  26  64  S7      29.79F
#TROY SCHOOL    N/A         38  34  85  CALM    29.86F
#UKIAH          N/A         43  35  73  SW2     29.88S
#WESTON 4E      N/A         45  31  58  E7      29.91F
$$

ORZ505-241110-
JOHN DAY BASIN

CITY            SKY/WX      TMP DP  RH  WIND    PRES   REMARKS
JOHN DAY        LGT DRIZZLE 43  36  76  CALM    29.96S
#JOHN DAY KJDY  N/A         46  N/A N/A W3      29.24F
#ANTELOPE 9ESE  N/A         45  43  93  CALM    N/A
#DAYVILLE SCHOOLN/A         44  36  73  S10     29.92F
#MITCHELL       N/A         44  38  79  E1      30.06F
#MITCHELL 8NW   N/A         41  35  79  SW1     29.72F
#MONUMENT HS    N/A         49  37  63  VRB5    29.89F
#MT. VERNON 5SE N/A         39  35  85  E2      29.90F
#SPRAY SCHOOL   N/A         47  N/A N/A CALM    N/A
#WINLOCK        N/A         42  40  93  CALM    29.89F
$$

ORZ506-241110-
OCHOCO AND JOHN DAY HIGHLANDS

CITY            SKY/WX      TMP DP  RH  WIND    PRES   REMARKS
#HORSE RIDGE DO N/A         40  32  73  SE16    N/A    WCI 32
#PAULINA SCHOOL N/A         40  35  82  NE5     N/A
#PINE MTN OBS   N/A         30  29  96  SE16G26 N/A    WCI 19
#PRAIRIE CITY   N/A         46  32  58  S9      30.12R
#SENECA         N/A         37  N/A N/A N7      N/A
#SENECA 9NW     N/A         35  32  89  CALM    30.00F
$$

ORZ049-241110-
GRANDE RONDE VALLEY

CITY            SKY/WX      TMP DP  RH  WIND    PRES   REMARKS
LA GRANDE       CLOUDY      46  27  47  S10     29.93F
#COVE           N/A         43  35  73  N1      29.96F
#COVE SCHOOL    N/A         44  32  62  N1      29.95F
#COVE 6NW       N/A         46  34  63  SE1     29.98F
#ELGIN 3N       N/A         35  28  75  CALM    29.93F
#ELGIN 1E       N/A         36  31  82  CALM    N/A
#IMBLER SCHOOL  N/A         37  31  79  N2      29.91F
#ISLAND CITY 4N N/A         47  46  96  E1      29.84F
#LADD CYN DOT   N/A         47  28  47  S15     N/A    WCI 41
#UNION 1S       N/A         50  29  44  SE10    29.96F
$$

ORZ050-241110-
WALLOWA COUNTY

CITY            SKY/WX      TMP DP  RH  WIND    PRES   REMARKS
JOSEPH AIRPORT  MOCLDY      36  27  69  CALM    29.94F
#IMNAHA SCHOOL  N/A         39  34  82  CALM    29.97F
#IMNAHA 10S     N/A         49  27  42  SW7     29.95F
#JOSEPH 3N      N/A         31  24  75  CALM    29.96F
#JOSEPH 3W      N/A         35  28  75  CALM    29.77F
#LOSTINE        N/A         32  29  89  CALM    29.82F
#LOSTINE 3SE    N/A         33  30  89  CALM    29.99F
#MT HOWARD 8000 N/A         28  20  71  S23G44  29.86F WCI 14
#PROMISE 1S     N/A         33  28  82  CALM    30.08F
#WALLOWA SCHOOL N/A         32  30  92  CALM    29.94F



$$



USA.gov is the U.S. government's official web portal to all federal, state and local government web resources and services.